Change the Weather History Date:

Friday, December 20, 2013

  Actual Average Record
Temperature  
Mean Temperature 52 °F -  
Max Temperature 59 °F 35 °F 59 °F (2013)
Min Temperature 45 °F 20 °F 1 °F (2004)
Degree Days  
Heating Degree Days 13    
Growing Degree Days 2 (Base 50)    
Moisture  
Dew Point 47 °F    
Average Humidity 81    
Maximum Humidity 94    
Minimum Humidity 62    
Precipitation  
Precipitation 0.00 in - - ()
Sea Level Pressure  
Sea Level Pressure 29.87 in    
Wind  
Wind Speed 13 mph (SSW)    
Max Wind Speed 18 mph    
Max Gust Speed 26 mph    
Visibility 10 miles    
Events Rain    
Averages and records for this station are not official NWS values.
T = Trace of Precipitation, MM = Missing Value Source: NWS Daily Summary

Daily Weather History Graph

Daily Weather History Graph

Search for Another Location

Airport or City:

Trip Planner

Search our weather history database for the weather conditions in past years. The results will help you decide how hot, cold, wet, or windy it might be!

Date:

Astronomy

Dec. 20, 2013 Rise Set
Actual Time 7:53 AM EST 5:14 PM EST
Civil Twilight 7:23 AM EST 5:44 PM EST
Nautical Twilight 6:49 AM EST 6:18 PM EST
Astronomical Twilight 6:16 AM EST 6:51 PM EST
Moon 8:33 PM EST (12/20) 9:47 AM EST (12/20)
Length of Visible Light 10h 21m
Length of Day
9h 20m
Waning Gibbous, 90% of the Moon is Illuminated
Dec 20
Waning Gibbous
Dec 25
Last Quarter
Jan 1
New
Jan 7
First Quarter
Jan 15
Full

Hourly Weather History & Observations

Time (EST) Temp. Windchill Dew Point Humidity Pressure Visibility Wind Dir Wind Speed Gust Speed Precip Events Conditions
12:59 AM 45.7 °F 41.0 °F 36.3 °F 70% 29.96 in 10.0 mi South 9.2 mph - N/A   Mostly Cloudy
1:58 AM 46.8 °F - 35.6 °F 65% 29.94 in 10.0 mi South 10.4 mph - N/A   Mostly Cloudy
2:59 AM 48.2 °F - 35.6 °F 62% 29.94 in 10.0 mi South 10.4 mph - N/A   Overcast
3:58 AM 48.9 °F - 36.3 °F 62% 29.93 in 10.0 mi South 12.7 mph - N/A   Mostly Cloudy
4:58 AM 49.3 °F - 37.0 °F 63% 29.93 in 10.0 mi South 11.5 mph - N/A   Mostly Cloudy
5:48 AM 50.0 °F - 37.4 °F 62% 29.90 in 10.0 mi South 12.7 mph - N/A   Overcast
5:58 AM 49.5 °F - 37.8 °F 64% 29.91 in 10.0 mi South 11.5 mph - N/A   Overcast
6:58 AM 50.4 °F - 38.8 °F 65% 29.91 in 10.0 mi South 12.7 mph - N/A   Overcast
7:58 AM 50.4 °F - 39.0 °F 65% 29.91 in 10.0 mi South 13.8 mph - N/A   Overcast
8:58 AM 50.9 °F - 40.1 °F 67% 29.91 in 10.0 mi South 13.8 mph - N/A   Overcast
9:58 AM 51.8 °F - 41.9 °F 69% 29.92 in 10.0 mi South 18.4 mph - N/A   Overcast
10:58 AM 53.2 °F - 43.7 °F 70% 29.92 in 10.0 mi South 13.8 mph - N/A   Overcast
11:58 AM 53.2 °F - 44.8 °F 73% 29.90 in 10.0 mi South 17.3 mph - N/A   Overcast
12:08 PM 53.6 °F - 44.6 °F 72% 29.87 in 10.0 mi SSW 18.4 mph - N/A   Overcast
12:58 PM 54.3 °F - 47.3 °F 77% 29.88 in 10.0 mi SSW 16.1 mph 25.3 mph N/A   Overcast
1:28 PM 53.6 °F - 48.2 °F 82% 29.84 in 10.0 mi South 17.3 mph 25.3 mph N/A   Overcast
1:48 PM 53.6 °F - 48.2 °F 82% 29.84 in 10.0 mi SSW 16.1 mph 21.9 mph N/A   Overcast
1:58 PM 54.1 °F - 48.7 °F 82% 29.86 in 10.0 mi SSW 17.3 mph 24.2 mph N/A   Overcast
2:00 PM 53.6 °F - 48.2 °F 82% 29.84 in 10.0 mi SSW 17.3 mph 24.2 mph N/A Rain Light Rain Showers
2:14 PM 53.6 °F - 50.0 °F 88% 29.84 in 10.0 mi SSW 18.4 mph - N/A   Overcast
2:27 PM 53.6 °F - 50.0 °F 88% 29.84 in 10.0 mi SSW 17.3 mph 26.5 mph N/A   Overcast
2:57 PM 53.6 °F - 50.0 °F 88% 29.82 in 10.0 mi SSW 13.8 mph - N/A   Overcast
2:58 PM 52.7 °F - 50.2 °F 91% 29.83 in 10.0 mi SSW 13.8 mph - 0.00 in   Overcast
3:11 PM 53.6 °F - 50.0 °F 88% 29.82 in 10.0 mi SSW 13.8 mph - N/A   Overcast
3:41 PM 53.6 °F - 50.0 °F 88% 29.83 in 10.0 mi SSW 15.0 mph - N/A   Overcast
3:58 PM 52.9 °F - 50.9 °F 93% 29.84 in 10.0 mi SSW 12.7 mph - N/A   Overcast
4:08 PM 53.6 °F - 51.8 °F 94% 29.84 in 9.0 mi SSW 12.7 mph - N/A   Overcast
4:58 PM 53.6 °F - 51.8 °F 94% 29.86 in 10.0 mi South 11.5 mph - N/A   Overcast
5:28 PM 53.6 °F - 51.8 °F 94% 29.85 in 10.0 mi South 11.5 mph - N/A   Overcast
5:48 PM 53.6 °F - 51.8 °F 94% 29.84 in 8.0 mi South 10.4 mph - N/A   Overcast
5:58 PM 53.6 °F - 51.8 °F 94% 29.86 in 10.0 mi South 10.4 mph - N/A   Overcast
6:58 PM 55.0 °F - 53.4 °F 94% 29.86 in 10.0 mi South 11.5 mph - N/A   Overcast
7:08 PM 55.4 °F - 53.6 °F 94% 29.84 in 10.0 mi South 13.8 mph - N/A   Overcast
7:18 PM 55.4 °F - 53.6 °F 94% 29.83 in 10.0 mi South 15.0 mph 23.0 mph N/A   Overcast
7:48 PM 57.2 °F - 53.6 °F 88% 29.85 in 10.0 mi SSW 11.5 mph - N/A   Mostly Cloudy
7:58 PM 57.0 °F - 54.1 °F 90% 29.86 in 10.0 mi South 13.8 mph - N/A   Overcast
8:18 PM 57.2 °F - 53.6 °F 88% 29.85 in 10.0 mi SSW 12.7 mph - N/A   Overcast
8:58 PM 57.7 °F - 54.3 °F 88% 29.85 in 10.0 mi South 12.7 mph - N/A   Overcast
9:58 PM 57.7 °F - 54.3 °F 88% 29.84 in 10.0 mi South 15.0 mph - N/A   Overcast
10:58 PM 59.2 °F - 55.4 °F 87% 29.83 in 10.0 mi South 16.1 mph 23.0 mph N/A   Overcast
11:58 PM 59.9 °F - 55.8 °F 86% 29.82 in 10.0 mi South 15.0 mph - N/A   Overcast